User: anonymous   Login
Location: Unspecified
(0.0000°N, 0.0000°E)
Time: 12:35:46
(UTC+02:00)
Language:

Cosmos 540 Rocket - Orbit

View from above orbital plane
View from above orbital plane
View from above satellite
View from above satellite

Ground track
Ground track

The orbit data is extracted from the following two-line orbital elements,

1  6324U 72104B   17113.84254465 +.00000066 +00000-0 +27338-4 0  9999
2  6324 074.0776 206.6813 0009308 353.3676 006.7357 14.43364568327461
Epoch (UTC): 23 April 2017 20:13:15
Eccentricity: 0.0009308
inclination: 74.0776°
perigee height: 741 km
apogee height: 754 km
right ascension of ascending node: 206.6813°
argument of perigee: 353.3676°
revolutions per day: 14.43364568
mean anomaly at epoch: 6.7357°
orbit number at epoch: 32746

The dashed part of the orbit path shows where the satellite is in the earth's shadow,  

DLR